Wetterdaten: Samstag, 16.05.2015
Datum Zeit Temp. A. Feuchte A. Luftdruck Regen Wind Richtung Richtung Sonnenschein ET UV Solar Taupunkt Windchill Windben Empfang
16.05.2015 00:00 11,4 C 81 % 1017,2 hPa 0,0 l/m 0,7 km/h (0 Bft) O-SO 114 0 min 0,000 mm 0,0 UV-I 0 W/m 8,3 C 11,4 C 4,0 km/h (1 Bft) 0,00 %
16.05.2015 00:15 11,4 C 81 % 1017,4 hPa 0,0 l/m 0,4 km/h (0 Bft) SO 137 0 min 0,000 mm 0,0 UV-I 0 W/m 8,3 C 11,4 C 4,0 km/h (1 Bft) 0,00 %
16.05.2015 00:30 11,5 C 80 % 1017,5 hPa 0,0 l/m 1,4 km/h (1 Bft) SO 141 0 min 0,000 mm 0,0 UV-I 0 W/m 8,2 C 11,5 C 4,0 km/h (1 Bft) 0,00 %
16.05.2015 00:45 11,6 C 79 % 1017,4 hPa 0,0 l/m 0,0 km/h (0 Bft) S-SO 151 0 min 0,000 mm 0,0 UV-I 0 W/m 8,1 C 11,6 C 0,0 km/h (0 Bft) 0,00 %
16.05.2015 01:00 11,4 C 81 % 1017,6 hPa 0,0 l/m 0,0 km/h (0 Bft) S 178 0 min 0,000 mm 0,0 UV-I 0 W/m 8,3 C 11,4 C 0,0 km/h (0 Bft) 0,00 %
16.05.2015 01:15 11,2 C 86 % 1017,9 hPa 0,0 l/m 0,0 km/h (0 Bft) S 183 0 min 0,000 mm 0,0 UV-I 0 W/m 8,9 C 11,2 C 0,0 km/h (0 Bft) 0,00 %
16.05.2015 01:30 11,0 C 86 % 1018,1 hPa 0,0 l/m 0,0 km/h (0 Bft) S 174 0 min 0,000 mm 0,0 UV-I 0 W/m 8,7 C 11,0 C 0,0 km/h (0 Bft) 0,00 %
16.05.2015 01:45 10,9 C 87 % 1018,0 hPa 0,0 l/m 0,0 km/h (0 Bft) SO 142 0 min 0,000 mm 0,0 UV-I 0 W/m 8,8 C 10,9 C 0,0 km/h (0 Bft) 0,00 %
16.05.2015 02:00 10,8 C 88 % 1018,3 hPa 0,0 l/m 0,0 km/h (0 Bft) S 175 0 min 0,000 mm 0,0 UV-I 0 W/m 8,9 C 10,8 C 0,0 km/h (0 Bft) 0,00 %
16.05.2015 02:15 10,8 C 87 % 1018,3 hPa 0,0 l/m 0,0 km/h (0 Bft) S 186 0 min 0,000 mm 0,0 UV-I 0 W/m 8,7 C 10,8 C 0,0 km/h (0 Bft) 0,00 %
16.05.2015 02:30 10,8 C 88 % 1018,3 hPa 0,0 l/m 0,0 km/h (0 Bft) S 188 0 min 0,000 mm 0,0 UV-I 0 W/m 8,9 C 10,8 C 0,0 km/h (0 Bft) 0,00 %
16.05.2015 02:45 10,8 C 87 % 1018,4 hPa 0,0 l/m 0,0 km/h (0 Bft) S 187 0 min 0,000 mm 0,0 UV-I 0 W/m 8,7 C 10,8 C 0,0 km/h (0 Bft) 0,00 %
16.05.2015 03:00 10,8 C 88 % 1018,4 hPa 0,0 l/m 0,0 km/h (0 Bft) S 180 0 min 0,000 mm 0,0 UV-I 0 W/m 8,9 C 10,8 C 0,0 km/h (0 Bft) 0,00 %
16.05.2015 03:15 10,8 C 89 % 1018,1 hPa 0,0 l/m 0,0 km/h (0 Bft) S 178 0 min 0,000 mm 0,0 UV-I 0 W/m 9,1 C 10,8 C 0,0 km/h (0 Bft) 0,00 %
16.05.2015 03:30 10,8 C 89 % 1018,2 hPa 0,0 l/m 0,0 km/h (0 Bft) S 183 0 min 0,000 mm 0,0 UV-I 0 W/m 9,1 C 10,8 C 0,0 km/h (0 Bft) 0,00 %
16.05.2015 03:45 10,8 C 89 % 1018,5 hPa 0,0 l/m 0,0 km/h (0 Bft) S 185 0 min 0,000 mm 0,0 UV-I 0 W/m 9,1 C 10,8 C 0,0 km/h (0 Bft) 0,00 %
16.05.2015 04:00 10,8 C 90 % 1018,4 hPa 0,0 l/m 0,0 km/h (0 Bft) S 175 0 min 0,000 mm 0,0 UV-I 0 W/m 9,2 C 10,8 C 0,0 km/h (0 Bft) 0,00 %
16.05.2015 04:15 10,8 C 90 % 1018,6 hPa 0,0 l/m 0,0 km/h (0 Bft) S 178 0 min 0,000 mm 0,0 UV-I 0 W/m 9,2 C 10,8 C 0,0 km/h (0 Bft) 0,00 %
16.05.2015 04:30 10,8 C 90 % 1018,7 hPa 0,0 l/m 0,0 km/h (0 Bft) S 185 0 min 0,000 mm 0,0 UV-I 0 W/m 9,2 C 10,8 C 0,0 km/h (0 Bft) 0,00 %
16.05.2015 04:45 10,8 C 90 % 1018,6 hPa 0,0 l/m 0,0 km/h (0 Bft) S 185 0 min 0,000 mm 0,0 UV-I 0 W/m 9,2 C 10,8 C 0,0 km/h (0 Bft) 0,00 %
16.05.2015 05:00 10,7 C 91 % 1018,9 hPa 0,0 l/m 0,0 km/h (0 Bft) S-SW 198 0 min 0,000 mm 0,0 UV-I 0 W/m 9,3 C 10,7 C 0,0 km/h (0 Bft) 0,00 %
16.05.2015 05:15 10,6 C 92 % 1018,9 hPa 0,0 l/m 0,0 km/h (0 Bft) S-SW 197 0 min 0,000 mm 0,0 UV-I 0 W/m 9,4 C 10,6 C 0,0 km/h (0 Bft) 0,00 %
16.05.2015 05:30 10,1 C 93 % 1019,1 hPa 0,0 l/m 0,0 km/h (0 Bft) S 181 0 min 0,000 mm 0,0 UV-I 2 W/m 9,0 C 10,1 C 0,0 km/h (0 Bft) 0,00 %
16.05.2015 05:45 9,8 C 93 % 1019,4 hPa 0,0 l/m 0,0 km/h (0 Bft) S 177 0 min 0,000 mm 0,0 UV-I 21 W/m 8,7 C 9,8 C 0,0 km/h (0 Bft) 0,00 %
16.05.2015 06:00 10,0 C 94 % 1019,7 hPa 0,0 l/m 0,0 km/h (0 Bft) S 177 15 min 0,000 mm 0,0 UV-I 55 W/m 9,1 C 10,0 C 0,0 km/h (0 Bft) 0,00 %
16.05.2015 06:15 10,7 C 93 % 1019,8 hPa 0,0 l/m 0,0 km/h (0 Bft) O 79 15 min 0,000 mm 0,0 UV-I 112 W/m 9,6 C 10,7 C 0,0 km/h (0 Bft) 0,00 %
16.05.2015 06:30 11,3 C 87 % 1020,1 hPa 0,0 l/m 0,0 km/h (0 Bft) SW 226 15 min 0,000 mm 1,0 UV-I 177 W/m 9,2 C 11,3 C 0,0 km/h (0 Bft) 0,00 %
16.05.2015 06:45 11,7 C 81 % 1020,1 hPa 0,0 l/m 0,0 km/h (0 Bft) S-SW 212 15 min 0,000 mm 1,0 UV-I 240 W/m 8,5 C 11,7 C 0,0 km/h (0 Bft) 0,00 %
16.05.2015 07:00 12,9 C 77 % 1020,2 hPa 0,0 l/m 0,0 km/h (0 Bft) S 173 15 min 0,000 mm 1,0 UV-I 269 W/m 9,0 C 12,9 C 0,0 km/h (0 Bft) 0,00 %
16.05.2015 07:15 13,7 C 71 % 1020,6 hPa 0,0 l/m 0,0 km/h (0 Bft) S-SW 194 15 min 0,000 mm 1,0 UV-I 299 W/m 8,5 C 13,7 C 0,0 km/h (0 Bft) 0,00 %
16.05.2015 07:30 13,1 C 73 % 1020,8 hPa 0,0 l/m 0,0 km/h (0 Bft) S 189 15 min 0,000 mm 1,0 UV-I 271 W/m 8,4 C 13,1 C 0,0 km/h (0 Bft) 0,00 %
16.05.2015 07:45 13,4 C 72 % 1020,9 hPa 0,0 l/m 0,0 km/h (0 Bft) S 181 15 min 0,000 mm 1,0 UV-I 318 W/m 8,5 C 13,4 C 0,0 km/h (0 Bft) 0,00 %
16.05.2015 08:00 15,1 C 65 % 1020,8 hPa 0,0 l/m 0,0 km/h (0 Bft) S 185 15 min 0,000 mm 2,0 UV-I 381 W/m 8,6 C 15,1 C 0,0 km/h (0 Bft) 0,00 %
16.05.2015 08:15 16,3 C 63 % 1020,7 hPa 0,0 l/m 0,0 km/h (0 Bft) S-SW 200 15 min 0,000 mm 2,0 UV-I 408 W/m 9,2 C 16,3 C 0,0 km/h (0 Bft) 0,00 %
16.05.2015 08:30 16,3 C 61 % 1020,9 hPa 0,0 l/m 0,0 km/h (0 Bft) S-SW 198 15 min 0,000 mm 2,0 UV-I 436 W/m 8,8 C 16,3 C 0,0 km/h (0 Bft) 0,00 %
16.05.2015 08:45 16,8 C 62 % 1021,0 hPa 0,0 l/m 0,0 km/h (0 Bft) S-SW 198 15 min 0,000 mm 2,0 UV-I 440 W/m 9,5 C 16,8 C 0,0 km/h (0 Bft) 0,00 %
16.05.2015 09:00 17,2 C 60 % 1020,9 hPa 0,0 l/m 0,0 km/h (0 Bft) S-SW 199 0 min 0,000 mm 2,0 UV-I 227 W/m 9,4 C 17,2 C 0,0 km/h (0 Bft) 0,00 %
16.05.2015 09:15 16,2 C 63 % 1021,0 hPa 0,0 l/m 0,0 km/h (0 Bft) S 185 0 min 0,000 mm 3,0 UV-I 275 W/m 9,1 C 16,2 C 0,0 km/h (0 Bft) 0,00 %
16.05.2015 09:30 16,4 C 62 % 1020,9 hPa 0,0 l/m 0,0 km/h (0 Bft) S-SW 208 15 min 0,000 mm 3,0 UV-I 411 W/m 9,1 C 16,4 C 0,0 km/h (0 Bft) 0,00 %
16.05.2015 09:45 16,5 C 60 % 1021,0 hPa 0,0 l/m 0,0 km/h (0 Bft) SW 215 15 min 0,000 mm 3,0 UV-I 468 W/m 8,7 C 16,5 C 0,0 km/h (0 Bft) 0,00 %
16.05.2015 10:00 17,2 C 60 % 1020,8 hPa 0,0 l/m 4,7 km/h (1 Bft) W-SW 251 15 min 0,000 mm 3,0 UV-I 547 W/m 9,4 C 17,2 C 7,9 km/h (2 Bft) 0,00 %
16.05.2015 10:15 17,5 C 61 % 1020,8 hPa 0,0 l/m 3,2 km/h (1 Bft) W-SW 238 15 min 0,000 mm 4,0 UV-I 572 W/m 9,9 C 17,5 C 4,0 km/h (1 Bft) 0,00 %
16.05.2015 10:30 18,5 C 60 % 1020,7 hPa 0,0 l/m 0,4 km/h (0 Bft) SO 142 15 min 0,000 mm 4,0 UV-I 651 W/m 10,6 C 18,5 C 4,0 km/h (1 Bft) 0,00 %
16.05.2015 10:45 19,2 C 58 % 1020,7 hPa 0,0 l/m 0,0 km/h (0 Bft) SW 225 15 min 0,000 mm 4,0 UV-I 694 W/m 10,7 C 19,2 C 0,0 km/h (0 Bft) 0,00 %
16.05.2015 11:00 19,6 C 58 % 1020,6 hPa 0,0 l/m 1,8 km/h (1 Bft) O-SO 115 15 min 0,000 mm 4,0 UV-I 678 W/m 11,1 C 19,6 C 4,0 km/h (1 Bft) 0,00 %
16.05.2015 11:15 19,1 C 59 % 1020,8 hPa 0,0 l/m 0,0 km/h (0 Bft) S-SW 206 15 min 0,000 mm 5,0 UV-I 708 W/m 10,9 C 19,1 C 0,0 km/h (0 Bft) 0,00 %
16.05.2015 11:30 19,5 C 54 % 1020,6 hPa 0,0 l/m 0,0 km/h (0 Bft) S-SO 148 15 min 0,000 mm 5,0 UV-I 760 W/m 9,9 C 19,5 C 0,0 km/h (0 Bft) 0,00 %
16.05.2015 11:45 19,8 C 52 % 1020,7 hPa 0,0 l/m 0,4 km/h (0 Bft) O-SO 114 15 min 0,000 mm 5,0 UV-I 756 W/m 9,7 C 19,8 C 4,0 km/h (1 Bft) 0,00 %
16.05.2015 12:00 20,1 C 54 % 1020,7 hPa 0,0 l/m 0,0 km/h (0 Bft) S 185 15 min 0,000 mm 6,0 UV-I 803 W/m 10,5 C 20,1 C 0,0 km/h (0 Bft) 0,00 %
16.05.2015 12:15 20,3 C 54 % 1020,5 hPa 0,0 l/m 0,0 km/h (0 Bft) S 181 15 min 0,000 mm 5,0 UV-I 628 W/m 10,7 C 20,3 C 0,0 km/h (0 Bft) 0,00 %
16.05.2015 12:30 18,5 C 58 % 1020,7 hPa 0,0 l/m 0,0 km/h (0 Bft) NW 325 15 min 0,000 mm 5,0 UV-I 745 W/m 10,1 C 18,5 C 0,0 km/h (0 Bft) 0,00 %
16.05.2015 12:45 20,1 C 52 % 1020,3 hPa 0,0 l/m 0,0 km/h (0 Bft) S 183 15 min 0,000 mm 6,0 UV-I 825 W/m 9,9 C 20,1 C 0,0 km/h (0 Bft) 0,00 %
16.05.2015 13:00 20,3 C 49 % 1020,1 hPa 0,0 l/m 0,0 km/h (0 Bft) S-SW 201 15 min 0,000 mm 6,0 UV-I 824 W/m 9,2 C 20,3 C 0,0 km/h (0 Bft) 0,00 %
16.05.2015 13:15 20,7 C 51 % 1019,8 hPa 0,0 l/m 0,0 km/h (0 Bft) SO 142 15 min 0,000 mm 6,0 UV-I 851 W/m 10,2 C 20,7 C 0,0 km/h (0 Bft) 0,00 %
16.05.2015 13:30 20,8 C 50 % 1019,7 hPa 0,0 l/m 1,4 km/h (1 Bft) S-SW 194 15 min 0,000 mm 6,0 UV-I 936 W/m 10,0 C 20,8 C 4,0 km/h (1 Bft) 0,00 %
16.05.2015 13:45 21,0 C 49 % 1019,8 hPa 0,0 l/m 4,0 km/h (1 Bft) SW 224 15 min 0,000 mm 5,0 UV-I 602 W/m 9,9 C 21,0 C 7,9 km/h (2 Bft) 0,00 %
16.05.2015 14:00 20,6 C 50 % 1019,6 hPa 0,0 l/m 0,4 km/h (0 Bft) SO 124 15 min 0,000 mm 5,0 UV-I 820 W/m 9,8 C 20,6 C 4,0 km/h (1 Bft) 0,00 %
16.05.2015 14:15 20,3 C 54 % 1019,7 hPa 0,0 l/m 0,0 km/h (0 Bft) S 182 15 min 0,000 mm 4,0 UV-I 781 W/m 10,7 C 20,3 C 0,0 km/h (0 Bft) 0,00 %
16.05.2015 14:30 20,9 C 55 % 1019,6 hPa 0,0 l/m 0,0 km/h (0 Bft) SW 225 0 min 0,000 mm 2,0 UV-I 291 W/m 11,5 C 20,9 C 0,0 km/h (0 Bft) 0,00 %
16.05.2015 14:45 20,7 C 52 % 1019,1 hPa 0,0 l/m 1,8 km/h (1 Bft) SW 226 15 min 0,000 mm 5,0 UV-I 862 W/m 10,5 C 20,7 C 4,0 km/h (1 Bft) 0,00 %
16.05.2015 15:00 21,7 C 48 % 1019,0 hPa 0,0 l/m 0,0 km/h (0 Bft) SO 124 15 min 0,000 mm 5,0 UV-I 863 W/m 10,2 C 21,7 C 0,0 km/h (0 Bft) 0,00 %
16.05.2015 15:15 22,4 C 48 % 1018,9 hPa 0,0 l/m 7,2 km/h (2 Bft) SW 218 15 min 0,000 mm 4,0 UV-I 492 W/m 10,8 C 22,1 C 7,9 km/h (2 Bft) 0,00 %
16.05.2015 15:30 22,6 C 44 % 1018,7 hPa 0,0 l/m 0,0 km/h (0 Bft) S-SO 155 15 min 0,000 mm 3,0 UV-I 897 W/m 9,7 C 22,6 C 0,0 km/h (0 Bft) 0,00 %
16.05.2015 15:45 22,4 C 45 % 1018,6 hPa 0,0 l/m 0,0 km/h (0 Bft) SO 143 15 min 0,000 mm 3,0 UV-I 804 W/m 9,9 C 22,4 C 0,0 km/h (0 Bft) 0,00 %
16.05.2015 16:00 22,8 C 46 % 1018,6 hPa 0,0 l/m 2,2 km/h (1 Bft) S-SW 207 15 min 0,000 mm 2,0 UV-I 851 W/m 10,6 C 22,8 C 4,0 km/h (1 Bft) 0,00 %
16.05.2015 16:15 22,0 C 41 % 1018,7 hPa 0,0 l/m 0,0 km/h (0 Bft) O 98 15 min 0,000 mm 2,0 UV-I 862 W/m 8,1 C 22,0 C 0,0 km/h (0 Bft) 0,00 %
16.05.2015 16:30 22,4 C 41 % 1018,6 hPa 0,0 l/m 2,9 km/h (1 Bft) W-NW 282 15 min 0,000 mm 2,0 UV-I 827 W/m 8,5 C 22,4 C 4,0 km/h (1 Bft) 0,00 %
16.05.2015 16:45 22,5 C 39 % 1018,6 hPa 0,0 l/m 0,0 km/h (0 Bft) S-SW 206 15 min 0,000 mm 2,0 UV-I 505 W/m 7,8 C 22,5 C 0,0 km/h (0 Bft) 0,00 %
16.05.2015 17:00 21,6 C 42 % 1018,8 hPa 0,0 l/m 0,0 km/h (0 Bft) S 187 15 min 0,000 mm 2,0 UV-I 340 W/m 8,1 C 21,6 C 0,0 km/h (0 Bft) 0,00 %
16.05.2015 17:15 21,9 C 40 % 1018,7 hPa 0,0 l/m 0,0 km/h (0 Bft) SW 232 15 min 0,000 mm 2,0 UV-I 748 W/m 7,7 C 21,9 C 0,0 km/h (0 Bft) 0,00 %
16.05.2015 17:30 22,4 C 39 % 1018,6 hPa 0,0 l/m 0,7 km/h (0 Bft) SW 228 15 min 0,000 mm 2,0 UV-I 390 W/m 7,8 C 22,4 C 4,0 km/h (1 Bft) 0,00 %
16.05.2015 17:45 21,8 C 40 % 1018,6 hPa 0,0 l/m 1,8 km/h (1 Bft) W-NW 284 15 min 0,000 mm 2,0 UV-I 676 W/m 7,6 C 21,8 C 4,0 km/h (1 Bft) 0,00 %
16.05.2015 18:00 21,7 C 41 % 1018,7 hPa 0,0 l/m 1,4 km/h (1 Bft) SW 219 15 min 0,000 mm 1,0 UV-I 518 W/m 7,9 C 21,7 C 4,0 km/h (1 Bft) 0,00 %
16.05.2015 18:15 21,2 C 41 % 1018,8 hPa 0,0 l/m 0,4 km/h (0 Bft) S-SW 201 15 min 0,000 mm 1,0 UV-I 474 W/m 7,4 C 21,2 C 4,0 km/h (1 Bft) 0,00 %
16.05.2015 18:30 21,2 C 40 % 1018,9 hPa 0,0 l/m 0,0 km/h (0 Bft) W-SW 255 15 min 0,000 mm 1,0 UV-I 495 W/m 7,1 C 21,2 C 0,0 km/h (0 Bft) 0,00 %
16.05.2015 18:45 21,2 C 40 % 1019,0 hPa 0,0 l/m 1,4 km/h (1 Bft) W-SW 256 15 min 0,000 mm 1,0 UV-I 433 W/m 7,1 C 21,2 C 4,0 km/h (1 Bft) 0,00 %
16.05.2015 19:00 20,6 C 39 % 1019,1 hPa 0,0 l/m 4,0 km/h (1 Bft) NW 311 15 min 0,000 mm 1,0 UV-I 315 W/m 6,2 C 20,6 C 7,9 km/h (2 Bft) 0,00 %
16.05.2015 19:15 20,4 C 42 % 1019,1 hPa 0,0 l/m 0,0 km/h (0 Bft) S-SW 198 15 min 0,000 mm 1,0 UV-I 230 W/m 7,1 C 20,4 C 0,0 km/h (0 Bft) 0,00 %
16.05.2015 19:30 19,8 C 43 % 1019,3 hPa 0,0 l/m 4,3 km/h (1 Bft) W-SW 255 15 min 0,000 mm 1,0 UV-I 101 W/m 6,9 C 19,8 C 7,9 km/h (2 Bft) 0,00 %
16.05.2015 19:45 19,2 C 46 % 1019,6 hPa 0,0 l/m 0,0 km/h (0 Bft) S 176 15 min 0,000 mm 0,0 UV-I 158 W/m 7,3 C 19,2 C 0,0 km/h (0 Bft) 0,00 %
16.05.2015 20:00 18,8 C 47 % 1019,5 hPa 0,0 l/m 0,0 km/h (0 Bft) S 188 15 min 0,000 mm 0,0 UV-I 66 W/m 7,2 C 18,8 C 0,0 km/h (0 Bft) 0,00 %
16.05.2015 20:15 18,0 C 52 % 1019,8 hPa 0,0 l/m 0,0 km/h (0 Bft) W-SW 237 15 min 0,000 mm 0,0 UV-I 24 W/m 8,0 C 18,0 C 0,0 km/h (0 Bft) 0,00 %
16.05.2015 20:30 17,2 C 53 % 1019,8 hPa 0,0 l/m 0,0 km/h (0 Bft) S-SW 202 0 min 0,000 mm 0,0 UV-I 3 W/m 7,5 C 17,2 C 0,0 km/h (0 Bft) 0,00 %
16.05.2015 20:45 16,5 C 57 % 1020,2 hPa 0,0 l/m 0,0 km/h (0 Bft) S 180 0 min 0,000 mm 0,0 UV-I 0 W/m 8,0 C 16,5 C 0,0 km/h (0 Bft) 0,00 %
16.05.2015 21:00 16,0 C 60 % 1020,3 hPa 0,0 l/m 0,0 km/h (0 Bft) S-SW 196 0 min 0,000 mm 0,0 UV-I 0 W/m 8,2 C 16,0 C 0,0 km/h (0 Bft) 0,00 %
16.05.2015 21:15 15,5 C 62 % 1020,5 hPa 0,0 l/m 0,4 km/h (0 Bft) S 191 0 min 0,000 mm 0,0 UV-I 0 W/m 8,3 C 15,5 C 4,0 km/h (1 Bft) 0,00 %
16.05.2015 21:30 15,2 C 61 % 1020,8 hPa 0,0 l/m 0,0 km/h (0 Bft) S 184 0 min 0,000 mm 0,0 UV-I 0 W/m 7,7 C 15,2 C 0,0 km/h (0 Bft) 0,00 %
16.05.2015 21:45 15,0 C 61 % 1021,0 hPa 0,0 l/m 0,4 km/h (0 Bft) SW 215 0 min 0,000 mm 0,0 UV-I 0 W/m 7,5 C 15,0 C 4,0 km/h (1 Bft) 0,00 %
16.05.2015 22:00 14,8 C 62 % 1021,2 hPa 0,0 l/m 0,7 km/h (0 Bft) SW 230 0 min 0,000 mm 0,0 UV-I 0 W/m 7,6 C 14,8 C 4,0 km/h (1 Bft) 0,00 %
16.05.2015 22:15 14,6 C 62 % 1021,5 hPa 0,0 l/m 0,4 km/h (0 Bft) SW 217 0 min 0,000 mm 0,0 UV-I 0 W/m 7,4 C 14,6 C 4,0 km/h (1 Bft) 0,00 %
16.05.2015 22:30 14,5 C 63 % 1021,4 hPa 0,0 l/m 0,0 km/h (0 Bft) SW 220 0 min 0,000 mm 0,0 UV-I 0 W/m 7,5 C 14,5 C 0,0 km/h (0 Bft) 0,00 %
16.05.2015 22:45 14,2 C 63 % 1021,4 hPa 0,0 l/m 0,4 km/h (0 Bft) S-SW 211 0 min 0,000 mm 0,0 UV-I 0 W/m 7,3 C 14,2 C 4,0 km/h (1 Bft) 0,00 %
16.05.2015 23:00 14,2 C 61 % 1021,4 hPa 0,0 l/m 0,0 km/h (0 Bft) S-SW 194 0 min 0,000 mm 0,0 UV-I 0 W/m 6,8 C 14,2 C 0,0 km/h (0 Bft) 0,00 %
16.05.2015 23:15 14,2 C 62 % 1021,7 hPa 0,0 l/m 0,0 km/h (0 Bft) S 184 0 min 0,000 mm 0,0 UV-I 0 W/m 7,0 C 14,2 C 0,0 km/h (0 Bft) 0,00 %
16.05.2015 23:30 14,2 C 63 % 1021,8 hPa 0,0 l/m 2,2 km/h (1 Bft) W-SW 258 0 min 0,000 mm 0,0 UV-I 0 W/m 7,3 C 14,2 C 7,9 km/h (2 Bft) 0,00 %
16.05.2015 23:45 14,2 C 65 % 1021,8 hPa 0,0 l/m 1,4 km/h (1 Bft) O-SO 113 0 min 0,000 mm 0,0 UV-I 0 W/m 7,7 C 14,2 C 4,0 km/h (1 Bft) 0,00 %
_ Min-Zeit 05:45 16:45 00:00 - 00:45 - - - - - - 19:00 05:45 00:45 00:00
Minimum _ 9,8 C 39 % 1017,2 hPa - 0,0 km/h (0 Bft) - - - - - - 6,2 C 9,8 C 0,0 km/h (0 Bft) 0,00 %
_ Max-Zeit 16:00 06:00 23:30 00:00 15:15 - - 06:00 00:00 12:00 13:30 14:30 16:00 10:00 00:00
Maximum _ 22,8 C 94 % 1021,8 hPa 0,0 l/m 7,2 km/h
SW (2 Bft)
- - 15 min 0,000 mm 6,0 UV-I 936 W/m 11,5 C 22,8 C 7,9 km/h
W-SW (2 Bft)
0,00 %
Durchschnitt _ 16,3 C 64 % 1019,6 hPa #0,0 l/m 0,5 km/h (0 Bft) W-SW - #13:45 h #0,000 mm 3,0 UV-I 495 W/m 8,8 C 16,3 C 1,4 km/h (1 Bft) 0,00 %